Starlink 4061

operational
NORAD ID: 53247 Int'l Des: 2022-086 Owner: SPXS Country: US Constellation: starlink
LEOCIRCULAR

About Starlink 4061

Description loading...

Live Position

Loading 3D Globe...

Upcoming Passes

Altitude History

Altitude vs Time

uPlot chart will show altitude changes over time

Two-Line Element Set

1 53247U 22086F 25348.06997771 .00000692 00000-0 61566-4 0 9992
2 53247 53.2167 223.6644 0001434 95.8078 264.3078 15.08834620188388
Epoch: Dec 14, 2025 • Age: 19 hours

Current Status

Altitude 547.9 km
Velocity 7.59 km/s
Sub-Earth Point -25.65°S, 166.24°E
Launch Date Jul 24, 2022
Age 3.3 years
Type internet

Technical Details

Classification Payload
Mass 297.00 kg
Dry Mass 275.00 kg
Total Mass 297.00 kg
Length 0.20 m
Diameter 2.80 m
Span 9.00 m
Shape Box + pan
Manufacturer SPXS
Bus Type Starlink
Phase Status In Orbit
Owner/State SPXS/US

Large Constellations

Loading constellations...